Regional Weather Roundup
Issued by NWS Cleveland, OH

Home | Current Version | Previous Version | Text Only | Print | Product List | Glossary Off
Versions: 1 2 3 4 5 6 7 8 9 10 11 12 13 14 15 16 17 18 19 20 21 22 23 24 25 26 27 28 29 30 31 32 33 34 35 36 37 38 39 40 41 42 43 44 45 46 47 48 49 50

132
ASUS41 KCLE 211300
RWRCLE
OHIO REGIONAL WEATHER ROUNDUP
NATIONAL WEATHER SERVICE WILMINGTON, OH
800 AM EST SUN JAN 21 2018

NOTE: "FAIR" INDICATES FEW OR NO CLOUDS BELOW 12,000 FEET WITH NO
SIGNIFICANT WEATHER AND/OR OBSTRUCTIONS TO VISIBILITY.

OHZ001>008-015>018-024>027-034-035-043-044-211400-
   NORTHWEST OHIO

CITY           SKY/WX    TMP DP  RH WIND       PRES   REMARKS
DEFIANCE       FOG       37  36  96 CALM      30.07R VSB 1/4
FINDLAY        FOG       39  37  92 S7        30.07R VSB 1/2
TOLEDO EXPRESS FOG       36  36 100 S3        30.07R VSB 1/2
TOLEDO EXEC    FOG       36  35  96 S7        30.09R VSB 1/4
LIMA           FOG       39  39 100 S7        30.07S VSB 1/2
$$

OHZ009>014-019>023-028>033-038-089-211400-
   NORTHEAST OHIO

CITY           SKY/WX    TMP DP  RH WIND       PRES   REMARKS
CLE-HOPKINS    CLOUDY    39  37  92 CALM      30.12R FOG
CLE-LAKEFRONT  CLOUDY    39  37  92 E3        30.09R FOG
CUY CO. ARPT   DRIZZLE   39  32  75 S7        30.10S FOG
LORAIN-ELYRIA  CLOUDY    37  33  85 S5        30.10R FOG
ASHTABULA      CLOUDY    37  34  89 S5        30.11R
AKRON-CANTON   FOG       38  36  92 S6        30.10S VSB 1/4
WOOSTER        NOT AVBL
MANSFIELD      FOG       39  39 100 S7        30.09R VSB 1/2
YOUNGSTOWN     LGT RAIN  37  36  96 S6        30.10S VSB 3/4
$$

OHZ042-051>053-060>062-070>072-077>081-211400-
  SOUTHWEST OHIO

CITY           SKY/WX    TMP DP  RH WIND       PRES   REMARKS
CINC-COVINGTON CLOUDY    47  40  76 S8        30.10R
CINC-LUNKEN    CLOUDY    39  38  96 CALM      30.12S
HAMILTON       CLOUDY    44  41  89 E3        30.11R
DAYTON         NOT AVBL
WRIGHT-PAT AFB CLOUDY    43  43 100 S7        30.08S
DAYTON GENERAL CLOUDY    45  39  79 S10       30.08R
WILMINGTON     CLOUDY    43  38  82 S7        30.10S
$$

OHZ036-037-039>041-045>050-054>059-063>069-073>076-082>088-211400-
  CENTRAL AND SOUTHEAST OHIO

CITY           SKY/WX    TMP DP  RH WIND       PRES   REMARKS
COLUMBUS       CLOUDY    42  42 100 SE3       30.11R
OSU AIRPORT    CLOUDY    41  41 100 S6        30.10R
BOLTON FIELD   CLOUDY    39  39 100 S5        30.10S
RICKENBACK AFB NOT AVBL
NEWARK         FOG       36  36 100 CALM      30.11S VSB 1/4
MARION         FOG       38  37  97 S6        30.09S VSB 1/4
LANCASTER      CLOUDY    37  37 100 S5        30.12S FOG
ZANESVILLE     CLOUDY    41  39  93 S7        30.12S
NEW PHILLY     FOG       38  38 100 CALM      30.13R VSB 1/2
$$




USA.gov is the U.S. government's official web portal to all federal, state and local government web resources and services.